sat.trackr.live / text

‹ back to catalog

APRIZESAT 3

NORAD 35686 · 2009-041F

PAYLOAD ACTIVE UNKNOWN

§ Identity

Operator
Country
US
Launch date
2009-07-29
Launch site
TYMSC
Launch vehicle
Mass (kg)
RCS (m²)
0.11

Purposes: tech_demo

External: N2YO · Heavens-Above · Gunter

§ Orbital elements

Epoch: 2026-09-20T04:31:16.211712Z

Period
96.23 min
Inclination
98.2191°
Eccentricity
0.0062745
Mean motion
14.96466671 rev/d
Perigee alt
534.2 km
Apogee alt
621.5 km
Semi-major
6,956.0 km
B*
1.3927e-4
RAAN
61.0570°
Arg perigee
113.0139°
Mean anomaly
247.7715°
Rev number
93,058

§ Raw data

APRIZESAT 31 35686U 09041F   26263.18838208  .00001576  00000+0  13927-3 0  99922 35686  98.2191  61.0570 0062745 113.0139 247.7715 14.96466671930589

JSON: /api/v1/satellites/35686 · /tle

For live sub-satellite position, see the globe view (requires WebGL).

§ Visibility from observer

Set your observer location to see the next 7 days of passes ≥ 10°. The values pass through the URL so the page stays shareable.

No JS? Fill the form by hand. The geolocation button needs JavaScript.